Regional Weather Roundup
Issued by NWS

Home | Current Version | Previous Version | Text Only | Print | Product List | Glossary Off
Versions: 1 2 3 4 5 6 7 8 9 10 11 12 13 14 15 16 17 18 19 20 21 22 23 24 25 26 27 28 29 30 31 32 33 34 35 36 37 38 39 40 41 42 43 44 45 46 47 48 49 50

000
ASUS43 KMPX 270301
RWRMN
WEATHER ROUNDUP FOR MINNESOTA
NATIONAL WEATHER SERVICE TWIN CITIES/CHANHASSEN MN
1000 PM CDT SUN APR 26 2015


NOTE: "FAIR" INDICATES FEW OR NO CLOUDS BELOW 12,000 FEET WITH NO
SIGNIFICANT WEATHER AND/OR OBSTRUCTIONS TO VISIBILITY. N/A MEANS
CURRENT SKY AND/OR WEATHER CONDITIONS ARE NOT AVAILABLE.

MNZ060>063-068>070-270400-
   Twin Cities Metro

CITY           SKY/WX    TMP DP  RH WIND       PRES   REMARKS
TWIN CITIES    PTCLDY    54  24  31 N9        30.12R
ST PAUL        CLEAR     54  25  32 NE9       30.13R
CRYSTAL        CLEAR     53  23  31 NE6       30.12R
BLAINE         CLEAR     54  21  28 N6        30.13R
LAKEVILLE      CLEAR     50  25  37 N5        30.11R
EDEN PRAIRIE   PTCLDY    53  23  31 N7        30.11R
SOUTH ST PAUL  CLEAR     55  25  31 NE5       30.12R
LAKE ELMO      FAIR      50  27  40 NE8       30.14R
$$
MNZ001>005-007-008-013>017-022>024-027-028-270400-
   Northwest Minnesota

CITY           SKY/WX    TMP DP  RH WIND       PRES   REMARKS
BEMIDJI        CLEAR     46  24  43 CALM      30.15S
HALLOCK        MOCLDY    50  25  37 CALM      30.12S
ROSEAU         PTCLDY    46  30  53 E7        30.16R
WARROAD        PTCLDY    43  30  61 E5        30.16S
THIEF RVR FALL PTCLDY    52  21  30 SE7       30.15S
CROOKSTON      PTCLDY    54  25  32 SE8         N/A
FOSSTON        CLEAR     48  25  40 CALM      30.16R
DETROIT LAKES  CLEAR     54  21  28 SE3       30.16R
MOORHEAD       PTCLDY    52  28  40 S3        30.14R
PARK RAPIDS    CLEAR     51  21  30 E5        30.14R
MAHNOMEN       FAIR      49  25  39 NE7       30.14R
$$
MNZ006-009>011-018-025>026-270400-
   North Central Minnesota

CITY           SKY/WX    TMP DP  RH WIND       PRES   REMARKS
BAUDETTE       CLEAR     47  24  40 E3        30.16R
FLAG ISLAND    CLEAR     52  25  35 CALM      30.15S
INTL FALLS     CLEAR     34  18  52 CALM      30.17R
WASKISH        CLEAR     39  30  70 CALM      30.17R
BIG FORK       CLEAR     45  18  33 CALM      30.17R
LONGVILLE      CLEAR     39  27  60 CALM      30.15R
GRAND RAPIDS   CLEAR     43  19  39 CALM      30.15S
CRANE LAKE     CLEAR     34  25  69 CALM      30.18S
ORR            CLEAR     39  18  41 CALM      30.15R
COOK           CLEAR     37  25  60 CALM      30.17R
WALKER         FAIR      49  16  27 CALM      30.14S
$$
MNZ012-019>021-037-270400-
   Northeast Minnesota

CITY           SKY/WX    TMP DP  RH WIND       PRES   REMARKS
DULUTH         CLEAR     40  24  53 CALM      30.16R
ELY            CLEAR     37  28  70 CALM      30.15S
HIBBING        CLEAR     40  18  41 SE5       30.16R
EVELETH        CLEAR     41  19  42 CALM      30.17S
DULUTH HARBOR  CLEAR     37  34  87 CALM      30.19S
TWO HARBORS    CLEAR     36  27  69 CALM      30.15S
SILVER BAY     CLEAR     30  25  80 CALM      30.16R
GRAND MARAIS     N/A     34  26  72 CALM      30.17S
G MARAIS ARPRT CLEAR     30  19  64 CALM      30.17R
$$
MNZ029>031-032-039>041-046>048-054>057-064-270400-
   West Central Minnesota

CITY           SKY/WX    TMP DP  RH WIND       PRES   REMARKS
FERGUS FALLS   PTCLDY    54  18  24 CALM      30.15R
WHEATON        PTCLDY    48  23  37 E3        30.16R
MORRIS         CLEAR     48  19  32 E6        30.13R
ALEXANDRIA     CLEAR     50  21  32 SE3       30.15R
ELBOW LAKE     FAIR      51  26  37 E5        30.13S
WADENA         CLEAR     48  21  34 CALM      30.14S
GLENWOOD       CLEAR     46  19  34 NE7       30.15R
APPLETON       CLEAR     46  28  49 CALM      30.13R
BENSON         CLEAR     48  16  27 E5        30.14R
ORTONVILLE     CLEAR     52  23  32 E6        30.13R
MADISON        CLEAR     48  19  32 E8        30.13R
WILLMAR        FAIR      50  25  37 CALM      30.15R
$$
MNZ033>034-036-042>043-049>051-058-059-270400-
   Central Minnesota

CITY           SKY/WX    TMP DP  RH WIND       PRES   REMARKS
ST CLOUD       PTCLDY    51  19  28 CALM      30.14R
SAUK CENTRE    FAIR      47  22  37 CALM      30.14S
PAYNESVILLE    CLEAR     43  29  57 CALM      30.15R
AITKIN         CLEAR     41  19  42 CALM      30.13R
PINE RIVER     CLEAR     43  30  61 CALM      30.18R
BRAINERD       CLEAR     43  32  65 CALM      30.14R
STAPLES        CLEAR     43  21  42 CALM      30.15R
LONG PRAIRIE   FAIR      45  23  42 CALM      30.15R
LITTLE FALLS   CLEAR     41  21  45 CALM      30.14S
LITCHFIELD     PTCLDY    50  32  50 CALM      30.13S
BUFFALO        CLEAR     49  25  39 NE5       30.14R
MAPLE LAKE     PTCLDY    51  26  37 NE3       30.14S
$$
MNZ037-044-045-052-053-270400-
   East Central Minnesota

CITY           SKY/WX    TMP DP  RH WIND       PRES   REMARKS
PRINCETON      CLEAR     48  19  32 CALM      30.14S
MORA           CLEAR     36  23  60 CALM      30.16S
CAMBRIDGE      CLEAR     46  27  46 CALM      30.13R
RUSH CITY      MOCLDY    43  23  44 CALM      30.14S
MOOSE LAKE     CLEAR     43  21  42 CALM      30.14R
HINCKLEY       FAIR      37  27  65 NE3       30.14S
CLOQUET        CLEAR     37  23  56 CALM      30.16S
MCGREGOR       CLEAR     41  27  56 E5        30.16R
$$
MNZ071>073-080-081-089-090-097-098-270400-
   Southwest Minnesota

CITY           SKY/WX    TMP DP  RH WIND       PRES   REMARKS
MONTEVIDEO     CLEAR     46  19  34 SE7       30.14R
GRANITE FALLS  CLEAR     50  19  28 NE6       30.15R
CANBY          CLEAR     49  24  38 N5        30.14R
MARSHALL       CLEAR     50  18  27 NE6       30.12R
REDWOOD FALLS  CLEAR     53  15  22 E3        30.12R
OLIVIA         CLEAR     46  19  34 NE5       30.13R
PIPESTONE      CLEAR     52  28  40 NE5       30.10R
WINDOM         CLEAR     52  19  28 NE8       30.11R
WORTHINGTON    CLEAR     46  25  42 NE7       30.11R
JACKSON        CLEAR     46  21  36 E7        30.11R
TRACY          CLEAR     51  21  31 NE3       30.12R
SLAYTON        CLEAR     51  19  28 CALM      30.12R
$$
MNZ065>067-074>077-082>085-091>093-270400-
   South Central Minnesota

CITY           SKY/WX    TMP DP  RH WIND       PRES   REMARKS
MANKATO        PTCLDY    54  30  40 NE6       30.11R
NEW ULM        CLEAR     54  16  22 NE3       30.11R
ST JAMES       CLEAR     48  19  32 NE5       30.12R
FAIRMONT       CLEAR     52  23  32 NE9       30.10R
GLENCOE        PTCLDY    53  26  35 N3        30.12R
FARIBAULT      CLEAR     45  30  57 CALM      30.11R
OWATONNA       CLEAR     46  21  36 CALM      30.11R
WASECA         CLEAR     48  28  46 NE5       30.11R
ALBERT LEA     CLEAR     46  30  53 N3        30.10R
$$
MNZ078>079-086>088-094>096-270400-
   Southeast Minnesota

CITY           SKY/WX    TMP DP  RH WIND       PRES   REMARKS
ROCHESTER      CLEAR     51  24  34 N6        30.10R
RED WING       CLEAR     54  19  26 NE10G17   30.10R
STANTON        CLEAR     48  28  45 CALM      30.10R
DODGE CENTER   CLEAR     52  25  35 N3        30.10R
WINONA         CLEAR     48  36  61 CALM      30.09R
AUSTIN         CLEAR     46  30  53 CALM      30.09S
PRESTON        CLEAR     49  21  32 CALM      30.09R
$$
ABBREVIATIONS USED IN REMARKS
   TC - TEMPERATURES IN CELSIUS
  WCI - WIND CHILL INDEX
   HX - HEAT INDEX
  VSB - VISIBILITY
$$



USA.gov is the U.S. government's official web portal to all federal, state and local government web resources and services.